[[{"header":{"parameterUnit":"m.s-1","parameterCategory":1,"la1":30.2991,"la2":30.254,"lo1":-89.0895,"lo2":-89.0444,"dy":0.0017,"dx":0.0017,"nx":28,"ny":28,"refTime":"2024-12-22T09:00:00:Z","depth":0,"parameterNumber":2,"parameterNumberName":"U-component_of_WINDS"},"data":[0,0,0,0,0,0,0,0,0,0,0,0,0,0,0,0,0,0,0,0,0,0,0,0,0,0,0,0,0,0,0,0,0,0,0,0,0,0,0,0,0,0,0,0,0,0,0,0,0,0,0,0,0,0,0,0,0,0,-2.3102,-2.3101,0,-2.3035,-2.3035,-2.3034,-2.2912,-2.2909,-2.2907,-2.2905,-2.2839,-2.284,-2.284,0,0,0,0,0,0,0,0,0,0,0,0,0,-2.3126,-2.3126,-2.3102,-2.3101,-2.31,-2.3036,-2.3035,-2.3034,-2.2912,-2.2909,-2.2906,-2.2904,-2.2839,-2.284,-2.284,0,0,0,0,0,0,0,0,0,0,0,0,0,-2.3094,-2.3126,-2.3102,-2.3031,-2.3025,-2.3036,-2.3035,-2.3033,-2.2913,-2.2909,-2.2906,-2.2902,-2.2839,-2.284,-2.284,-2.2916,0,0,-2.2842,-2.2843,0,0,0,0,0,0,0,0,-2.3096,-2.3093,-2.3043,-2.3036,-2.3029,-2.2978,-2.3019,-2.2994,-2.2914,-2.2955,-2.2905,-2.29,-2.2889,-2.2885,-2.288,-2.2912,-2.291,-2.2842,-2.2843,-2.2843,-2.2843,0,0,0,0,0,0,0,-2.3098,-2.3095,-2.3075,-2.3042,-2.3034,-2.3004,-2.2996,-2.3014,-2.2943,-2.2951,-2.2942,-2.2936,-2.2884,-2.288,-2.2878,-2.2909,-2.2842,-2.2843,-2.2844,-2.2844,-2.3002,-2.3005,0,0,0,0,0,0,-2.311,-2.3098,-2.3078,-2.3073,-2.3054,-2.3007,-2.2997,-2.2998,-2.2942,-2.293,-2.2939,-2.2931,-2.2881,-2.2877,-2.2875,-2.2961,-2.2843,-2.2844,-2.2844,-2.2998,-2.3002,-2.3007,0,0,0,0,0,0,-2.3111,-2.3109,-2.308,-2.3083,-2.3077,-2.301,-2.3012,-2.2999,-2.2994,-2.2933,-2.292,-2.2948,-2.2878,-2.2874,-2.2907,-2.2957,-2.2844,-2.2845,-2.2993,-2.2999,-2.3005,-2.3133,0,0,0,0,0,0,-2.3112,-2.3111,-2.3138,-2.3085,-2.3077,-2.3112,-2.3015,-2.3,-2.2995,-2.2984,-2.2938,-2.2927,-2.2875,-2.2906,-2.2907,-2.2956,-2.2845,-2.2989,-2.2996,-2.3003,-2.3124,-2.3142,-2.3158,0,0,0,0,0,-2.3114,-2.3176,-2.3139,-2.3138,-2.311,-2.3115,-2.3111,-2.305,-2.3,-2.3027,-2.2988,-2.2928,-2.2951,-2.2911,-2.2911,-2.296,-2.2985,-2.2994,-2.3002,-2.3116,-2.3139,-2.3158,0,0,0,0,0,0,-2.3237,-2.3168,-2.3126,-2.3174,-2.3151,-2.3095,-2.3127,-2.3075,-2.3067,-2.3056,-2.2981,-2.2971,-2.3015,-2.299,-2.2946,-2.3031,-2.2959,-2.2968,-2.3046,-2.3066,-2.3083,-2.3089,-2.2846,0,0,0,0,0,-2.327,-2.3279,-2.3219,-2.3266,-2.3257,-2.3195,-2.3195,-2.3149,-2.3123,-2.3113,-2.3076,-2.3055,-2.3057,-2.306,-2.3059,-2.312,-2.3109,-2.3154,-2.3171,-2.3185,-2.3194,-2.3227,-2.3247,-2.3034,-2.3034,-2.3034,0,0,-2.3338,-2.3301,-2.3312,-2.329,-2.3267,-2.3281,-2.3187,-2.3204,-2.3214,-2.3116,-2.3145,-2.3118,-2.3088,-2.3136,-2.3155,-2.3117,-2.3251,-2.3196,-2.3208,-2.3209,-2.3238,-2.3258,-2.3276,-2.304,-2.3039,-2.3038,0,0,-2.3468,-2.344,-2.3478,-2.3457,-2.3424,-2.3382,-2.3392,-2.3343,-2.3321,-2.3349,-2.3277,-2.3287,-2.3292,-2.3275,-2.3267,-2.3393,-2.3338,-2.3395,-2.3484,-2.3517,-2.3534,-2.3548,-2.3595,-2.3613,-2.3404,-2.3404,-2.3404,0,-2.3556,-2.3572,-2.3504,-2.3526,-2.352,-2.3432,-2.347,-2.3454,-2.3423,-2.3421,-2.3379,-2.3385,-2.3359,-2.3403,-2.3434,-2.3429,-2.3439,-2.34,-2.3537,-2.3551,-2.3563,-2.3607,-2.3625,-2.3411,-2.3411,-2.341,-2.3409,0,-2.3683,-2.3696,-2.373,-2.3702,-2.3699,-2.373,-2.3668,-2.3674,-2.3629,-2.3593,-2.3623,-2.3589,-2.358,-2.3587,-2.3543,-2.3625,-2.3603,-2.355,-2.3476,-2.3592,-2.3632,-2.3648,-2.3422,-2.3419,-2.3417,-2.3415,0,0,-2.3889,-2.3824,-2.3838,-2.3825,-2.3783,-2.3792,-2.3819,-2.381,-2.3818,-2.38,-2.3822,-2.3829,-2.3781,-2.3772,-2.3725,-2.3754,-2.3859,-2.3698,-2.3696,-2.373,-2.395,-2.3991,-2.4012,-2.3822,-2.3825,-2.3827,-2.3953,0,-2.4011,-2.4053,-2.3994,-2.405,-2.4062,-2.3979,-2.4003,-2.3981,-2.3948,-2.3954,-2.3918,-2.3925,-2.3859,-2.3854,-2.3878,-2.3841,-2.3903,-2.3831,-2.3844,-2.3846,-2.3856,-2.4032,-2.4075,-2.4196,-2.3968,-2.3971,-2.3973,0,-2.4158,-2.4148,-2.4206,-2.4162,-2.4164,-2.4187,-2.4175,-2.4182,-2.4156,-2.413,-2.4121,-2.4066,-2.4092,-2.402,-2.4055,-2.4008,-2.401,-2.3993,-2.3996,-2.3996,-2.3917,-2.4039,-2.4232,-2.4251,-2.3996,-2.3994,-2.3993,0,-2.4305,-2.4305,-2.434,-2.4331,-2.428,-2.4299,-2.4279,-2.4249,-2.4249,-2.4239,-2.4238,-2.4231,-2.4228,-2.4225,-2.4171,-2.4123,-2.4215,-2.4137,-2.4195,-2.4197,-2.4219,-2.4219,-2.4417,-2.4218,-2.4218,-2.4218,-2.4217,0,-2.4448,-2.4487,-2.4405,-2.4427,-2.4469,-2.4401,-2.4445,-2.4416,-2.4391,-2.4407,-2.4335,-2.4352,-2.4279,-2.4289,-2.4247,-2.4284,-2.4282,-2.4264,-2.4252,-2.4271,-2.4274,-2.4272,-2.4263,-2.4222,-2.4221,-2.422,-2.422,0,-2.4619,-2.4565,-2.4598,-2.4548,-2.4536,-2.457,-2.4527,-2.4546,-2.4509,-2.4531,-2.4532,-2.4474,-2.4482,-2.4427,-2.4425,-2.4396,-2.4455,-2.4428,-2.4464,-2.4456,-2.4518,-2.4514,-2.4724,-2.4749,-2.4533,-2.4535,-2.4537,0,-2.4714,-2.4742,-2.4695,-2.4701,-2.4685,-2.4694,-2.4693,-2.4628,-2.463,-2.4604,-2.4627,-2.4629,-2.4627,-2.4644,-2.4602,-2.4601,-2.4575,-2.4648,-2.4574,-2.4593,-2.4578,-2.4578,-2.4581,-2.4664,-2.4667,-2.4669,-2.4671,0,-2.489,-2.4862,-2.4863,-2.4856,-2.4857,-2.4848,-2.4835,-2.4844,-2.4773,-2.478,-2.4787,-2.4785,-2.4784,-2.4787,-2.4778,-2.4758,-2.4705,-2.4695,-2.4708,-2.4728,-2.4749,-2.4741,-2.4508,-2.469,-2.4688,-2.4687,-2.4686,-2.4685,-2.5026,-2.5048,-2.502,-2.5024,-2.5007,-2.4997,-2.5013,-2.4978,-2.4982,-2.4975,-2.4937,-2.4952,-2.4927,-2.4909,-2.4896,-2.4907,-2.4872,-2.4891,-2.4897,-2.4903,-2.4915,-2.4746,-2.4905,-2.4904,-2.4904,-2.4903,-2.4903,0,-2.52,-2.5178,-2.5182,-2.5166,-2.517,-2.5118,-2.5101,-2.5108,-2.5122,-2.5103,-2.5103,-2.5113,-2.5116,-2.5076,-2.5075,-2.5092,-2.5068,-2.5095,-2.5093,-2.509,-2.4945,-2.4935,-2.5115,-2.5115,-2.5115,-2.5115,-2.5115,-2.5115,-2.5291,-2.5326,-2.5296,-2.5323,-2.53,-2.5314,-2.5309,-2.53,-2.5285,-2.5299,-2.5302,-2.5275,-2.5248,-2.5245,-2.5247,-2.5235,-2.5239,-2.5275,-2.5255,-2.5121,-2.51,-2.5081,-2.507,-2.5276,-2.5276,-2.5399,-2.54,-2.5401]},{"header":{"parameterUnit":"m.s-1","parameterCategory":1,"la1":30.2991,"la2":30.254,"lo1":-89.0895,"lo2":-89.0444,"dy":0.0017,"dx":0.0017,"nx":28,"ny":28,"refTime":"2024-12-22T09:00:00:Z","depth":0,"parameterNumber":3,"parameterNumberName":"V-component_of_WINDS"},"data":[0,0,0,0,0,0,0,0,0,0,0,0,0,0,0,0,0,0,0,0,0,0,0,0,0,0,0,0,0,0,0,0,0,0,0,0,0,0,0,0,0,0,0,0,0,0,0,0,0,0,0,0,0,0,0,0,0,0,-0.5624,-0.5625,0,-0.5701,-0.5702,-0.5703,-0.5681,-0.568,-0.5678,-0.5677,-0.5759,-0.5763,-0.5766,0,0,0,0,0,0,0,0,0,0,0,0,0,-0.5461,-0.5464,-0.5624,-0.5625,-0.5626,-0.5701,-0.5702,-0.5703,-0.5682,-0.568,-0.5678,-0.5676,-0.5758,-0.5762,-0.5766,0,0,0,0,0,0,0,0,0,0,0,0,0,-0.5534,-0.5465,-0.5624,-0.5624,-0.5625,-0.5701,-0.5702,-0.5703,-0.5682,-0.568,-0.5677,-0.5675,-0.5756,-0.5762,-0.5767,-0.5848,0,0,-0.5784,-0.5786,0,0,0,0,0,0,0,0,-0.553,-0.554,-0.5623,-0.5625,-0.5626,-0.5679,-0.5675,-0.5752,-0.5683,-0.5661,-0.5677,-0.5674,-0.5735,-0.5742,-0.5761,-0.5852,-0.5855,-0.5784,-0.5788,-0.579,-0.5792,0,0,0,0,0,0,0,-0.5525,-0.5537,-0.5655,-0.5625,-0.5626,-0.5621,-0.5629,-0.5689,-0.571,-0.5662,-0.5661,-0.567,-0.5735,-0.5756,-0.5763,-0.5857,-0.5784,-0.5789,-0.5792,-0.5795,-0.6017,-0.602,0,0,0,0,0,0,-0.5519,-0.5533,-0.5652,-0.5657,-0.5571,-0.5626,-0.5635,-0.5664,-0.5709,-0.5714,-0.5672,-0.5669,-0.5748,-0.5757,-0.5766,-0.5865,-0.579,-0.5795,-0.5798,-0.6015,-0.6018,-0.6021,0,0,0,0,0,0,-0.5516,-0.553,-0.5649,-0.5595,-0.5609,-0.5632,-0.5665,-0.5667,-0.5689,-0.5717,-0.572,-0.569,-0.5746,-0.5758,-0.5828,-0.5867,-0.5798,-0.5802,-0.6012,-0.6016,-0.6019,-0.6062,0,0,0,0,0,0,-0.5511,-0.5529,-0.5559,-0.5595,-0.5612,-0.5709,-0.5667,-0.567,-0.5698,-0.5694,-0.5735,-0.5739,-0.5746,-0.5819,-0.5833,-0.5873,-0.5807,-0.6008,-0.6014,-0.6018,-0.6057,-0.6067,-0.6075,0,0,0,0,0,-0.5505,-0.5569,-0.5561,-0.5576,-0.5651,-0.5711,-0.5721,-0.5727,-0.5701,-0.5732,-0.575,-0.5738,-0.586,-0.5827,-0.5842,-0.5884,-0.6006,-0.6012,-0.6018,-0.6053,-0.6065,-0.6075,0,0,0,0,0,0,-0.5539,-0.5574,-0.5566,-0.5643,-0.5674,-0.5708,-0.5748,-0.5739,-0.5779,-0.5775,-0.578,-0.5789,-0.586,-0.5879,-0.5841,-0.5965,-0.5929,-0.5939,-0.5951,-0.5962,-0.5971,-0.5966,-0.5811,0,0,0,0,0,-0.5555,-0.56,-0.5628,-0.5694,-0.571,-0.5726,-0.5752,-0.5753,-0.5787,-0.58,-0.5823,-0.5857,-0.5903,-0.5933,-0.5977,-0.6058,-0.6068,-0.6095,-0.6104,-0.6111,-0.612,-0.6165,-0.6178,-0.604,-0.604,-0.604,0,0,-0.5589,-0.5614,-0.5642,-0.5701,-0.5726,-0.5773,-0.5737,-0.5789,-0.5825,-0.5809,-0.5876,-0.5893,-0.5931,-0.6007,-0.6042,-0.6025,-0.616,-0.6119,-0.6124,-0.6129,-0.6173,-0.6186,-0.6197,-0.6044,-0.6044,-0.6043,0,0,-0.5676,-0.5699,-0.5756,-0.5781,-0.5818,-0.5828,-0.5841,-0.5876,-0.5887,-0.5953,-0.5942,-0.5984,-0.6063,-0.6091,-0.6115,-0.6211,-0.6201,-0.6225,-0.6273,-0.6317,-0.6328,-0.6337,-0.6373,-0.6386,-0.6233,-0.6233,-0.6233,0,-0.5715,-0.5786,-0.5787,-0.584,-0.5866,-0.5851,-0.591,-0.5934,-0.5984,-0.6003,-0.5982,-0.608,-0.6105,-0.6187,-0.621,-0.623,-0.6247,-0.6222,-0.6326,-0.6336,-0.6345,-0.6379,-0.6392,-0.6236,-0.6235,-0.6235,-0.6235,0,-0.5832,-0.5881,-0.5922,-0.597,-0.6,-0.6056,-0.6066,-0.6097,-0.6095,-0.6107,-0.6175,-0.6203,-0.6253,-0.6272,-0.6271,-0.6354,-0.6343,-0.6324,-0.6289,-0.6361,-0.6393,-0.6406,-0.6239,-0.6238,-0.6238,-0.6237,0,0,-0.5946,-0.5991,-0.6007,-0.6028,-0.6066,-0.6105,-0.6159,-0.6206,-0.6233,-0.6267,-0.6314,-0.638,-0.6362,-0.639,-0.6391,-0.6429,-0.6505,-0.6406,-0.6407,-0.6425,-0.66,-0.6616,-0.6631,-0.6497,-0.65,-0.6501,-0.6598,0,-0.6038,-0.6133,-0.6135,-0.6223,-0.6268,-0.6254,-0.6301,-0.633,-0.6343,-0.6384,-0.6397,-0.6445,-0.6417,-0.6434,-0.647,-0.6488,-0.654,-0.648,-0.6543,-0.6545,-0.6536,-0.6648,-0.6665,-0.6754,-0.661,-0.6612,-0.6614,0,-0.6159,-0.6196,-0.6288,-0.6319,-0.6338,-0.6381,-0.6424,-0.6463,-0.6495,-0.6501,-0.6531,-0.6526,-0.6583,-0.6543,-0.6621,-0.6581,-0.6606,-0.6618,-0.6621,-0.663,-0.6586,-0.6661,-0.6783,-0.6797,-0.6633,-0.6632,-0.663,0,-0.6235,-0.6307,-0.6371,-0.639,-0.6428,-0.6458,-0.6475,-0.6505,-0.6533,-0.6571,-0.6589,-0.6632,-0.6657,-0.6691,-0.6699,-0.6669,-0.6778,-0.6739,-0.6786,-0.6786,-0.6812,-0.6811,-0.6942,-0.6824,-0.6824,-0.6824,-0.6823,0,-0.6339,-0.6397,-0.6406,-0.6446,-0.651,-0.6511,-0.6575,-0.659,-0.6616,-0.6659,-0.6648,-0.669,-0.6695,-0.6738,-0.6744,-0.6809,-0.6819,-0.6827,-0.6829,-0.683,-0.6829,-0.6848,-0.6843,-0.6827,-0.6826,-0.6826,-0.6825,0,-0.6436,-0.6445,-0.6514,-0.6543,-0.6552,-0.6598,-0.6624,-0.6662,-0.6672,-0.6727,-0.674,-0.6756,-0.6806,-0.6815,-0.6874,-0.6878,-0.6956,-0.695,-0.6945,-0.6945,-0.6993,-0.6989,-0.7143,-0.7164,-0.703,-0.7031,-0.7032,0,-0.6504,-0.6547,-0.6581,-0.6608,-0.6627,-0.6671,-0.6699,-0.6701,-0.6731,-0.6771,-0.6805,-0.6852,-0.6891,-0.6971,-0.6989,-0.7034,-0.703,-0.7081,-0.7037,-0.7037,-0.7034,-0.7032,-0.7037,-0.709,-0.7092,-0.7093,-0.7094,0,-0.6623,-0.6624,-0.6665,-0.6706,-0.674,-0.6773,-0.6804,-0.6827,-0.6834,-0.6868,-0.6917,-0.6947,-0.7006,-0.7055,-0.7099,-0.7117,-0.7108,-0.7107,-0.7121,-0.7124,-0.712,-0.7125,-0.697,-0.7104,-0.7103,-0.7103,-0.7102,-0.7102,-0.6709,-0.6747,-0.6776,-0.6821,-0.6845,-0.6874,-0.6912,-0.6925,-0.6967,-0.7014,-0.7013,-0.7068,-0.7099,-0.7157,-0.7178,-0.7222,-0.7206,-0.7225,-0.7231,-0.7236,-0.7242,-0.7111,-0.7229,-0.7229,-0.7229,-0.7229,-0.7228,0,-0.6829,-0.6847,-0.6888,-0.6932,-0.6967,-0.6952,-0.6985,-0.7017,-0.7065,-0.7094,-0.7131,-0.7189,-0.7235,-0.7255,-0.7301,-0.7332,-0.7329,-0.7344,-0.7343,-0.7348,-0.7252,-0.7237,-0.7346,-0.7346,-0.7346,-0.7346,-0.7346,-0.7346,-0.6897,-0.6961,-0.6965,-0.7041,-0.7058,-0.7111,-0.7132,-0.7159,-0.7182,-0.7246,-0.7284,-0.7296,-0.7322,-0.7369,-0.7411,-0.7416,-0.7434,-0.7453,-0.7456,-0.7367,-0.7355,-0.7344,-0.7329,-0.7456,-0.7456,-0.7548,-0.7549,-0.755]}]]